Location: Silverdale
(47.6506°N, 122.6941°W)
Time: 14:46:45
(UTC+00:00)

SR - All Passes

Search period start: 26 September 2022 00:00
Search period end: 06 October 2022 00:00
Orbit: 573 x 879 km, 66.7° (Epoch: 26 September)

Date Brightness Start Highest point End Pass type
(mag) Time Alt. Az. Time Alt. Az. Time Alt. Az.
26 Sep - 05:43:30 10° SSE 05:48:17 27° ESE 05:53:07 10° NE night (unlit)
26 Sep - 07:24:07 10° SW 07:29:59 65° NW 07:35:52 10° NNE visible
26 Sep - 09:08:52 10° WNW 09:13:11 20° NNW 09:17:26 10° NNE visible
26 Sep - 10:55:58 10° NNW 10:57:37 11° N 10:59:14 10° NNE visible
26 Sep - 12:39:03 10° NNW 12:42:16 15° NNE 12:45:21 10° NE visible
26 Sep - 14:20:36 10° NNW 14:25:55 42° NE 14:30:48 10° ESE daylight
26 Sep - 16:02:56 10° NW 16:07:56 37° WSW 16:12:31 10° S daylight
27 Sep - 04:55:34 10° SE 04:58:33 14° ESE 05:01:35 10° ENE night (unlit)
27 Sep - 06:33:51 10° SSW 06:39:43 76° ESE 06:45:38 10° NE visible
27 Sep - 08:17:20 10° W 08:22:24 29° NW 08:27:26 10° NNE visible
27 Sep - 10:04:00 10° NW 10:06:28 13° NNW 10:08:55 10° N visible
27 Sep - 11:48:59 10° N 11:51:12 12° NNE 11:53:22 10° NE visible
27 Sep - 13:30:33 10° NNW 13:35:18 27° NE 13:39:45 10° E visible
27 Sep - 15:12:26 10° NW 15:17:56 70° WSW 15:22:55 10° SSE daylight
27 Sep - 16:57:49 10° W 16:58:48 10° W 16:59:47 10° WSW daylight
28 Sep - 05:44:08 10° S 05:49:39 44° ESE 05:55:12 10° NE visible
28 Sep - 07:26:10 10° WSW 07:31:48 43° NW 07:37:23 10° NNE visible
28 Sep - 09:11:56 10° WNW 09:15:25 16° NNW 09:18:52 10° NNE visible
28 Sep - 10:58:34 10° NNW 11:00:03 11° N 11:01:31 10° NNE visible
28 Sep - 12:40:32 10° NNW 12:44:31 19° NNE 12:48:17 10° ENE visible
28 Sep - 14:22:11 10° NNW 14:27:42 66° NE 14:32:44 10° SE daylight
28 Sep - 16:05:12 10° WNW 16:09:11 21° WSW 16:12:55 10° SSW daylight
29 Sep - 04:55:07 10° SSE 04:59:45 25° ESE 05:04:24 10° NE night (unlit)
29 Sep - 06:35:29 10° SW 06:41:23 70° NW 06:47:17 10° NNE visible
29 Sep - 08:20:05 10° W 08:24:30 21° NNW 08:28:52 10° NNE visible
29 Sep - 10:07:13 10° NNW 10:08:53 11° N 10:10:32 10° N visible
29 Sep - 11:50:32 10° NNW 11:53:33 14° NNE 11:56:28 10° NE visible
29 Sep - 13:32:02 10° NNW 13:37:16 39° NE 13:42:05 10° ESE visible
29 Sep - 15:14:18 10° NW 15:19:22 40° WSW 15:24:00 10° S daylight
30 Sep - 04:07:27 10° SE 04:10:02 13° ESE 04:12:38 10° ENE night (unlit)
30 Sep - 05:45:17 10° SSW 05:51:09 71° ESE 05:57:01 10° NE visible
30 Sep - 07:28:35 10° W 07:33:45 30° NW 07:38:51 10° NNE visible
30 Sep - 09:15:10 10° NW 09:17:45 13° NNW 09:20:17 10° N visible
30 Sep - 11:00:26 10° N 11:02:28 12° N 11:04:28 10° NNE visible
30 Sep - 12:42:00 10° NNW 12:46:38 26° NE 12:50:58 10° E visible
30 Sep - 14:23:50 10° NW 14:29:20 76° WSW 14:34:19 10° SSE daylight
30 Sep - 16:08:33 10° W 16:10:17 12° W 16:11:58 10° WSW daylight
01 Oct - 04:55:39 10° S 05:01:05 40° ESE 05:06:34 10° NE night (unlit)
01 Oct - 06:37:30 10° WSW 06:43:10 46° NW 06:48:48 10° NNE visible
01 Oct - 08:23:07 10° WNW 08:26:43 16° NNW 08:30:16 10° NNE visible
01 Oct - 10:09:57 10° NNW 10:11:19 11° N 10:12:40 10° NNE visible
01 Oct - 11:51:59 10° NNW 11:55:48 18° NNE 11:59:26 10° ENE visible
01 Oct - 13:33:36 10° NNW 13:39:05 61° NE 13:44:04 10° SE visible
01 Oct - 15:16:29 10° WNW 15:20:38 23° WSW 15:24:31 10° SSW daylight
02 Oct - 04:06:45 10° SSE 04:11:13 23° ESE 04:15:41 10° ENE night (unlit)
02 Oct - 05:46:52 10° SW 05:52:46 75° NW 05:58:39 10° NNE visible
02 Oct - 07:31:17 10° W 07:35:49 22° NNW 07:40:16 10° NNE visible
02 Oct - 09:18:26 10° NNW 09:20:09 11° N 09:21:51 10° N visible
02 Oct - 11:02:00 10° NNW 11:04:49 14° NNE 11:07:35 10° NE visible
02 Oct - 12:43:28 10° NNW 12:48:36 37° NE 12:53:20 10° ESE visible
02 Oct - 14:25:40 10° NW 14:30:47 44° WSW 14:35:27 10° S daylight
03 Oct - 03:19:27 10° ESE 03:21:31 12° E 03:23:34 10° E night (unlit)
03 Oct - 04:56:43 10° SSW 05:02:33 66° ESE 05:08:23 10° NE night (unlit)
03 Oct - 06:39:50 10° WSW 06:45:05 32° NW 06:50:16 10° NNE visible
03 Oct - 08:26:20 10° NW 08:29:01 13° NNW 08:31:40 10° N visible
03 Oct - 10:11:53 10° N 10:13:44 11° N 10:15:33 10° NNE visible
03 Oct - 11:53:26 10° NNW 11:57:56 24° NE 12:02:09 10° E visible
03 Oct - 13:35:14 10° NW 13:40:43 82° WSW 13:45:41 10° SSE visible
03 Oct - 15:19:31 10° WNW 15:21:45 13° WSW 15:23:54 10° SW daylight
04 Oct - 04:07:10 10° S 04:12:31 37° ESE 04:17:53 10° NE visible
04 Oct - 05:48:48 10° WSW 05:54:32 49° NW 06:00:12 10° NNE visible
04 Oct - 07:34:17 10° WNW 07:38:00 17° NNW 07:41:39 10° NNE visible
04 Oct - 09:21:18 10° NNW 09:22:35 11° N 09:23:50 10° NNE visible
04 Oct - 11:03:26 10° NNW 11:07:05 17° NNE 11:10:35 10° ENE visible
04 Oct - 12:45:01 10° NNW 12:50:26 57° NE 12:55:22 10° SE visible
04 Oct - 14:27:47 10° NW 14:32:04 25° WSW 14:36:03 10° SSW daylight
05 Oct - 03:18:24 10° SSE 03:22:39 21° ESE 03:26:56 10° ENE visible
05 Oct - 04:58:14 10° SW 05:04:09 80° NW 05:10:03 10° NNE visible
05 Oct - 06:42:30 10° W 06:47:08 23° NNW 06:51:40 10° NNE visible
05 Oct - 08:29:37 10° NNW 08:31:24 11° N 08:33:09 10° N visible
05 Oct - 10:13:25 10° N 10:16:05 13° NNE 10:18:40 10° NE visible
05 Oct - 11:54:54 10° NNW 11:59:56 34° NE 12:04:34 10° ESE visible
05 Oct - 13:37:01 10° NW 13:42:11 48° WSW 13:46:53 10° S visible
